User: anonymous   Login
Location: Unspecified
(0.0000°N, 0.0000°E)
Time: 23:20:23
(UTC+00:00)
Language:

GSAT 9 - Orbit

View from above orbital plane
View from above orbital plane
View from above satellite
View from above satellite

Ground track
Ground track

The orbit data is extracted from the following two-line orbital elements,

1 42695U 17024A   18293.64895905 -.00000293 +00000-0 +00000-0 0  9994
2 42695 000.0884 277.5893 0001639 281.4106 161.0256 01.00277361005306
Epoch (UTC): 20 October 2018 15:34:30
Eccentricity: 0.0001639
inclination: 0.0884°
perigee height: 35778 km
apogee height: 35791 km
right ascension of ascending node: 277.5893°
argument of perigee: 281.4106°
revolutions per day: 1.00277361
mean anomaly at epoch: 161.0256°
orbit number at epoch: 530

The dashed part of the orbit path shows where the satellite is in the earth's shadow,  

DLR